User: anonymous   Login
Location: Unspecified
(0.0000°N, 0.0000°E)
Time: 19:18:14
(UTC+00:00)
Language:

NNS O-27 - Orbit

View from above orbital plane
View from above orbital plane
View from above satellite
View from above satellite

Ground track
Ground track

The orbit data is extracted from the following two-line orbital elements,

1 18361U 87080A   17141.93509155 +.00000069 +00000-0 +10031-3 0  9996
2 18361 090.3287 334.6521 0104868 174.6279 185.6020 13.44431534455397
Epoch (UTC): 21 May 2017 22:26:31
Eccentricity: 0.0104868
inclination: 90.3287°
perigee height: 1014 km
apogee height: 1171 km
right ascension of ascending node: 334.6521°
argument of perigee: 174.6279°
revolutions per day: 13.44431534
mean anomaly at epoch: 185.6020°
orbit number at epoch: 45539

The dashed part of the orbit path shows where the satellite is in the earth's shadow,  

DLR